Station BRHC3 - 8467150 - Bridgeport, CT Image indicating link to RSS feed of recent meteorological observations for station BRHC3


Conditions at BRHC3 as of
(8:30 pm EDT on 05/30/2023)
0030 GMT on 05/31/2023:
     

Click on the graph icon in the table below to see a time series plot of the last five days of that observation.

5-day plot - Wind Direction Wind Direction (WDIR): E ( 80 deg true )
5-day plot - Wind Speed Wind Speed (WSPD): 7.0 kts
5-day plot - Wind Gust Wind Gust (GST): 8.9 kts
5-day plot - Atmospheric Pressure Atmospheric Pressure (PRES):30.19 in
5-day plot - Air Temperature Air Temperature (ATMP): 57.4 °F
5-day plot - Water Temperature Water Temperature (WTMP): 61.9 °F
5-day plot - Wind Speed at 10 Meters Wind Speed at 10 meters (WSPD10M): 7.8 kts
5-day plot - Wind Speed at 20 Meters Wind Speed at 20 meters (WSPD20M): 7.8 kts
5-day plot -  Wind Speed, Wind Gust and Atmospheric Pressure Combined plot of Wind Speed, Gust, and Air Pressure
NOS Water Level Observation Network Water Level
Previous observations
TIME
(EDT)
5-day plot - Wind Direction
WDIR
 
5-day plot - Wind Speed
WSPD
kts
5-day plot - Wind Gust
GST
kts
5-day plot - Wave Height
WVHT
ft
5-day plot - Dominant Wave Period
DPD
sec
5-day plot - Average Wave Period
APD
sec
5-day plot - Mean Wave Direction
MWD
 
5-day plot - Atmospheric Pressure
PRES
in
5-day plot - Pressure Tendency
PTDY
in
5-day plot - Air Temperature
ATMP
°F
5-day plot - Water Temperature
WTMP
°F
5-day plot - Dew Point
DEWP
°F
5-day plot - Salinity
SAL
psu
5-day plot - Visibility
VIS
nmi
5-day plot - Tide (above MLLW)
TIDE
ft
2023-05-30 08:24 pmENE 5.1 8.0----30.19- 57.4 62.1----
2023-05-30 08:18 pm E 5.1 7.0----30.19- 57.4 62.4----
2023-05-30 08:12 pmENE 5.1 9.9----30.19- 57.4 62.2----
2023-05-30 08:06 pm E 6.0 8.0----30.19- 57.9 62.4----
2023-05-30 08:00 pm E 6.0 8.9----30.19+0.00 58.1 62.4----
2023-05-30 07:54 pm E 7.0 8.9----30.19- 58.1 63.1----
2023-05-30 07:48 pm-------30.19- 58.6 62.4----
2023-05-30 07:42 pm-------30.19- 58.8 62.2----
2023-05-30 07:36 pm-------30.19- 58.8 62.2----
2023-05-30 07:30 pm E 7.0 8.9----30.19- 59.0 62.4----
2023-05-30 07:24 pm E 8.0 8.9----30.19- 59.2 62.1----
2023-05-30 07:00 pm E 7.0 9.9------ 60.1 62.2----
2023-05-30 06:54 pm E 7.0 8.0------ 60.3 62.1----
2023-05-30 06:48 pmESE 4.1 8.0----30.19- 61.3 62.4----
2023-05-30 06:42 pmESE 5.1 7.0----30.19- 61.0 62.6----
2023-05-30 06:36 pm E 6.0 8.0----30.19- 61.0 62.2----
2023-05-30 06:30 pm E 8.0 8.9----30.19- 60.8 62.6----
2023-05-30 06:24 pmESE 7.0 8.9----30.19- 61.3 63.1----
2023-05-30 06:18 pmESE 6.0 8.9----30.19- 61.2 62.8----
2023-05-30 06:12 pmESE 7.0 11.1----30.19- 61.5 62.6----
2023-05-30 06:06 pm E 7.0 9.9----30.19- 61.5 62.4----
2023-05-30 06:00 pmESE 8.0 9.9----30.19-0.02 61.3 63.0----
2023-05-30 05:54 pmESE 7.0 9.9----30.19- 61.5 62.8----
2023-05-30 05:48 pm E 8.0 11.1----30.19- 61.3 62.6----
2023-05-30 05:42 pmESE 8.0 9.9----30.19- 61.7 62.8----
2023-05-30 05:36 pm E 7.0 11.1----30.19- 62.1 62.8----
2023-05-30 05:30 pm E 8.0 9.9----30.19- 62.1 62.6----
2023-05-30 05:24 pm E 8.9 11.1----30.19- 61.9 62.6----
2023-05-30 05:18 pm E 8.0 11.1----30.19- 62.4 62.8----
2023-05-30 05:12 pm E 7.0 11.1----30.19- 62.6 62.6----
2023-05-30 05:06 pm E 8.9 11.1----30.19- 62.1 62.6----
2023-05-30 05:00 pm E 7.0 11.1----30.19-0.04 63.0 62.8----
2023-05-30 04:54 pmESE 8.0 12.0----30.19- 62.6 62.4----
2023-05-30 04:48 pm-------30.19- 63.5 62.4----
2023-05-30 04:42 pm-------30.19- 63.5 63.0----
2023-05-30 04:36 pm-------30.19- 63.9 62.8----
2023-05-30 04:30 pm E 8.0 11.1------ 62.6 62.4----
2023-05-30 04:24 pmESE 6.0 8.0------ 63.1 63.7----
2023-05-30 04:18 pm E 7.0 9.9----30.19- 63.7 62.8----
2023-05-30 04:12 pmESE 7.0 9.9----30.19- 62.8 62.4----
2023-05-30 04:06 pmESE 8.0 11.1----30.19- 63.5 62.4----
2023-05-30 04:00 pm SE 6.0 11.1----30.20-0.04 64.0 63.1----
2023-05-30 03:54 pm E 7.0 9.9----30.20- 64.4 62.6----
2023-05-30 03:48 pmESE 8.0 9.9----30.20- 63.9-----
2023-05-30 03:42 pmESE 8.0 11.1----30.20- 64.0-----
2023-05-30 03:36 pm SE 6.0 8.0----30.20- 64.4-----
2023-05-30 03:30 pmESE 5.1 8.9----30.20- 65.1 62.8----
2023-05-30 03:24 pm SE 8.0 8.9----30.20- 64.8 64.4----
2023-05-30 03:18 pm E 6.0 9.9----30.21- 64.9 63.1----
2023-05-30 03:12 pmESE 7.0 9.9----30.21- 64.9 63.5----
2023-05-30 03:06 pmESE 6.0 8.0----30.21- 65.3 63.5----
2023-05-30 03:00 pm E 8.0 11.1----30.21-0.02 65.5 63.5----
2023-05-30 02:54 pm E 8.9 11.1----30.22- 64.9 63.3----
2023-05-30 02:48 pm SE 6.0 11.1----30.21- 65.3 63.3----
2023-05-30 02:42 pmESE 8.0 12.0----30.21- 64.4 63.3----
2023-05-30 02:36 pmESE 5.1 9.9----30.22- 64.4 63.3----
2023-05-30 02:30 pm E 8.0 11.1----30.22- 63.9 63.1----
2023-05-30 02:24 pm E 7.0 12.0----30.22- 64.6 63.1----
2023-05-30 02:18 pm E 6.0 11.1----30.22- 64.6 63.5----
2023-05-30 02:12 pm SE 7.0 9.9----30.22- 63.5 63.5----
2023-05-30 02:06 pmESE 8.0 9.9----30.22- 63.7 63.1----
2023-05-30 02:00 pmESE 6.0 8.9----30.22-0.01 63.1 62.8----
2023-05-30 01:54 pm E 8.0 11.1----30.23- 63.1 63.1----
2023-05-30 01:48 pm E 6.0 8.9----30.22- 63.5 63.1----
2023-05-30 01:42 pm E 5.1 8.9----30.23- 63.0 62.6----
2023-05-30 01:36 pmESE 7.0 8.9----30.23- 62.6 62.4----
2023-05-30 01:30 pm E 6.0 8.0----30.23- 63.0 62.4----
2023-05-30 01:24 pmESE 6.0 8.9----30.23- 62.4 63.7----
2023-05-30 01:18 pmESE 6.0 8.0----30.23- 62.4 63.9----
2023-05-30 01:12 pmESE 7.0 9.9----30.23- 63.3 62.8----
2023-05-30 01:06 pmESE 8.0 12.0----30.23- 62.4 63.0----
2023-05-30 01:00 pm SE 8.9 11.1----30.23+0.01 61.3 63.3----
2023-05-30 12:54 pm E 8.0 12.0----30.24- 61.5 63.0----
2023-05-30 12:48 pmESE 6.0 8.9----30.24- 61.9 62.6----
2023-05-30 12:42 pmESE 8.0 12.0----30.24- 62.2 62.4----
2023-05-30 12:36 pmESE 7.0 13.0----30.24- 62.1 63.0----
2023-05-30 12:30 pm SE 8.0 11.1----30.24- 61.7 62.4----
2023-05-30 12:24 pmESE 9.9 15.0----30.24- 61.7 62.6----
2023-05-30 12:18 pmESE 9.9 13.0----30.24- 60.8 63.3----
2023-05-30 12:12 pmESE 8.0 12.0----30.24- 60.6 62.2----
2023-05-30 12:06 pmESE 8.9 13.0----30.24- 60.4 62.1----
2023-05-30 12:00 pm SE 8.9 12.0----30.24+0.02 59.5 61.7----
2023-05-30 11:54 am SE 11.1 13.0----30.24- 59.5 61.7----
2023-05-30 11:48 amSSE 9.9 13.0----30.24- 59.2 61.9----
2023-05-30 11:42 amSSE 12.0 13.0----30.24- 58.5 62.1----
2023-05-30 11:36 amSSE 12.0 14.0----30.24- 58.1 62.1----
2023-05-30 11:30 amSSE 11.1 13.0----30.24- 58.1 61.9----
2023-05-30 11:24 amSSE 11.1 13.0----30.24- 57.6 61.9----
2023-05-30 11:18 amSSE 11.1 13.0----30.24- 57.4 62.1----
2023-05-30 11:12 amSSE 12.0 14.0----30.24- 57.0 62.1----
2023-05-30 11:06 amSSE 13.0 15.0----30.24- 57.2 62.2----
2023-05-30 11:00 amSSE 13.0 15.0----30.24+0.03 57.6 61.5----
2023-05-30 10:54 am SE 8.9 12.0----30.24- 58.3 61.3----
2023-05-30 10:48 amESE 8.9 12.0------ 58.8 62.2----
2023-05-30 10:42 amESE 7.0 11.1------ 59.9 61.3----
2023-05-30 10:36 am SE 7.0 11.1------ 59.0 61.5----
2023-05-30 10:30 am SE 7.0 12.0------ 59.0 61.5----
2023-05-30 10:24 am SE 8.0 9.9------ 58.5 61.7----
2023-05-30 10:18 am E 6.0 9.9----30.23- 59.2 62.1----
2023-05-30 10:12 amESE 7.0 8.9----30.23- 58.6 61.5----
2023-05-30 10:06 am SE 8.0 9.9----30.22- 57.7 61.7----
2023-05-30 10:00 am SE 8.0 9.9----30.22+0.02 57.9 61.5----
2023-05-30 09:54 amESE 8.9 11.1----30.22- 57.6 61.3----
2023-05-30 09:48 amESE 7.0 11.1----30.22- 57.4 61.2----
2023-05-30 09:42 am SE 8.9 12.0----30.22- 57.2 61.9----
2023-05-30 09:36 amESE 7.0 8.9----30.22- 57.9 61.5----
2023-05-30 09:30 am E 6.0 8.9----30.22- 57.9 61.3----
2023-05-30 09:24 am E 7.0 12.0----30.21- 58.1 61.5----
2023-05-30 09:18 amESE 8.9 12.0----30.21- 57.0-----
2023-05-30 09:12 am E 8.0 12.0----30.21- 57.2-----
2023-05-30 09:06 am E 9.9 12.0----30.21- 57.0-----
2023-05-30 09:00 am E 8.0 12.0----30.21+0.01 57.0 61.5----
2023-05-30 08:54 am E 9.9 12.0----30.22- 57.0 61.7----
2023-05-30 08:48 am E 9.9 12.0----30.21- 56.7 61.7----
2023-05-30 08:42 amENE 8.0 11.1----30.21- 56.7 61.7----
2023-05-30 08:36 am E 7.0 12.0----30.21- 57.4 61.7----
2023-05-30 08:30 am E 8.9 11.1----30.22- 56.3 61.7----
2023-05-30 08:24 amENE 7.0 8.9----30.21- 56.8 61.7----
2023-05-30 08:18 am NE 8.0 12.0----30.21- 56.1 61.7----
2023-05-30 08:12 am E 9.9 12.0----30.21- 55.8 61.5----
2023-05-30 08:06 amENE 8.9 12.0----30.22- 55.6 61.7----
2023-05-30 08:00 amENE 8.0 12.0----30.21+0.02 55.6 61.5----
2023-05-30 07:54 amENE 8.0 13.0----30.21- 55.2 61.7----
2023-05-30 07:48 am E 7.0 9.9----30.21- 55.4 61.7----
2023-05-30 07:42 amENE 7.0 9.9----30.21- 54.5 61.7----
2023-05-30 07:36 am E 5.1 8.9----30.21- 54.9 61.5----
2023-05-30 07:30 amENE 7.0 11.1----30.20- 54.3 61.5----
2023-05-30 07:24 amENE 7.0 8.9----30.20- 54.0 61.5----
2023-05-30 07:18 amENE 7.0 9.9----30.20- 53.8 62.2----
2023-05-30 07:12 am NE 6.0 9.9----30.20- 53.2 62.1----
2023-05-30 07:06 am NE 6.0 9.9----30.20- 52.7 62.1----
2023-05-30 07:00 am NE 5.1 8.0----30.20+0.01 52.5 62.1----
2023-05-30 06:54 am NE 8.0 8.9----30.20- 52.2 62.1----
2023-05-30 06:48 am NE 7.0 8.9----30.20- 52.2 62.1----
2023-05-30 06:42 am NE 7.0 9.9----30.19- 51.8 62.1----
2023-05-30 06:36 amNNE 6.0 7.0----30.20- 51.4 61.9----
2023-05-30 06:30 amNNE 6.0 8.0----30.19- 50.9 62.2----
2023-05-30 06:24 amNNE 6.0 8.0----30.19- 50.7 62.1----
2023-05-30 06:18 am NE 5.1 7.0----30.20- 50.7 62.1----
2023-05-30 06:12 am NE 5.1 7.0----30.20- 50.5 62.2----
2023-05-30 06:06 am NE 6.0 7.0----30.20- 50.7 62.2----
2023-05-30 06:00 am NE 5.1 6.0----30.20+0.00 50.7 62.2----
2023-05-30 05:54 amNNE 5.1 7.0----30.20- 50.9 62.4----
2023-05-30 05:48 amNNE 5.1 5.1----30.20- 50.5 62.4----
2023-05-30 05:42 am NE 5.1 5.1----30.20- 50.4 62.2----
2023-05-30 05:36 am NE 4.1 6.0----30.20- 50.2 62.4----
2023-05-30 05:30 am NE 5.1 6.0----30.19- 50.2 62.4----
2023-05-30 05:24 amNNE 4.1 5.1----30.19- 50.2 62.4----
2023-05-30 05:18 amNNE 5.1 7.0----30.19- 50.5 62.4----
2023-05-30 05:12 amNNE 5.1 6.0----30.19- 50.2 62.6----
2023-05-30 05:06 amNNE 4.1 6.0----30.20- 50.7 62.6----
2023-05-30 05:00 amNNE 4.1 6.0----30.19+0.00 51.1 62.6----
2023-05-30 04:54 amNNE 5.1 7.0----30.19- 51.3 62.6----
2023-05-30 04:48 amNNE 5.1 8.0----30.19- 51.3 62.6----
2023-05-30 04:42 amNNE 5.1 7.0----30.19- 51.4 62.4----
2023-05-30 04:36 amNNE 4.1 6.0----30.19- 51.4 62.4----
2023-05-30 04:30 amNNE 2.9 5.1----30.19- 51.6 62.4----
2023-05-30 04:24 amNNE 5.1 6.0----30.19- 51.6 62.4----
2023-05-30 04:18 am N 4.1 5.1----30.19- 51.8 62.4----
2023-05-30 04:12 amNNE 5.1 7.0----30.19- 51.6 62.4----
2023-05-30 04:06 amNNE 4.1 5.1----30.19- 51.6 62.4----
2023-05-30 04:00 amNNE 5.1 7.0----30.19+0.00 51.8-----
2023-05-30 03:54 amNNE 5.1 7.0----30.19- 51.8-----
2023-05-30 03:48 amNNE 5.1 6.0----30.19- 52.0 62.6----
2023-05-30 03:42 amNNE 4.1 7.0----30.19- 52.2 62.6----
2023-05-30 03:36 amNNE 5.1 7.0----30.19- 52.3 62.6----
2023-05-30 03:30 amNNE 5.1 7.0----30.19- 52.3 62.6----
2023-05-30 03:24 amNNE 5.1 7.0----30.19- 52.5 62.6----
2023-05-30 03:18 amNNE 5.1 6.0----30.19- 52.7 62.6----
2023-05-30 03:12 amNNE 4.1 7.0----30.19- 52.7 62.4----
2023-05-30 03:06 amNNE 5.1 6.0----30.19- 53.1 62.4----
2023-05-30 03:00 amNNE 4.1 6.0----30.19+0.00 53.1 62.4----
2023-05-30 02:54 amNNE 5.1 7.0----30.19- 53.4 62.6----
2023-05-30 02:48 amNNE 5.1 6.0----30.19- 53.8 62.6----
2023-05-30 02:42 amNNE 4.1 5.1----30.19- 53.8 62.8----
2023-05-30 02:36 am NE 5.1 6.0----30.19- 54.0 62.8----
2023-05-30 02:06 amENE 6.0 7.0----30.19- 55.0 63.1----
2023-05-30 02:00 am E 5.1 8.9----30.19+0.01 55.0 63.0----
2023-05-30 01:54 am E 7.0 8.9----30.19- 55.4 63.0----
2023-05-30 01:48 am E 5.1 8.0----30.19- 55.2 63.1----
2023-05-30 01:42 amENE 6.0 8.9----30.19- 55.6 63.0----
2023-05-30 01:36 am E 6.0 9.9----30.19- 55.4 63.1----
2023-05-30 01:30 am E 5.1 8.0----30.19- 55.4 63.1----
2023-05-30 01:24 am E 7.0 9.9----30.19- 55.9 63.1----
2023-05-30 01:18 am E 5.1 8.9----30.19- 55.8 63.1----
2023-05-30 01:12 amENE 5.1 8.9----30.19- 55.8 63.1----
2023-05-30 01:06 am E 6.0 9.9----30.19- 56.1 63.0----
2023-05-30 01:00 am E 8.0 12.0----30.19+0.01 56.3 63.0----
2023-05-30 12:54 am E 8.0 12.0----30.18- 56.1 63.0----
2023-05-30 12:48 am E 6.0 11.1----30.18- 56.1 63.0----
2023-05-30 12:42 am E 6.0 9.9----30.18- 56.3 63.0----
2023-05-30 12:36 am E 8.0 12.0----30.19- 56.5 63.0----
2023-05-30 12:30 am E 7.0 9.9----30.19- 56.5 63.0----
2023-05-30 12:24 am E 8.0 11.1----30.19- 56.8 63.0----
2023-05-30 12:18 am-------30.19- 56.7 63.0----
2023-05-30 12:12 am-------30.19- 56.8 63.0----
2023-05-30 12:06 am-------30.19- 57.0 63.0----
2023-05-30 12:00 am E 6.0 11.1----30.19+0.05 57.2 63.1----
2023-05-29 11:54 pm E 8.0 12.0----30.19- 57.4 63.0----
2023-05-29 11:48 pm E 7.0 8.9----30.19- 57.4 63.3----
2023-05-29 11:42 pm E 8.9 13.0----30.19- 57.7 63.1----
2023-05-29 11:36 pmESE 7.0 11.1----30.19- 57.6 63.5----
2023-05-29 11:30 pmESE 5.1 12.0----30.19- 57.7 63.5----
2023-05-29 11:24 pm E 9.9 15.0----30.19- 57.9 63.3----
2023-05-29 11:18 pmESE 9.9 13.0----30.19- 58.1 63.7----
2023-05-29 11:12 pm E 6.0 12.0----30.18- 58.3 63.5----
2023-05-29 11:06 pmESE 7.0 15.0----30.18- 58.3 63.3----
2023-05-29 11:00 pmESE 12.0 14.0----30.18+0.06 58.5 63.0----
2023-05-29 10:54 pmESE 9.9 13.0----30.18- 58.6 63.0----
2023-05-29 10:48 pm E 8.9 13.0----30.18- 58.6 63.1----
2023-05-29 10:42 pmESE 8.9 12.0----30.18- 58.8 63.0----
2023-05-29 10:36 pmESE 7.0 12.0----30.18- 58.8 63.0----
2023-05-29 10:30 pmESE 8.0 12.0------ 59.0 63.0----
2023-05-29 10:24 pmESE 8.0 9.9------ 59.2 62.8----
2023-05-29 10:18 pm E 7.0 12.0----30.18- 59.4 63.0----
2023-05-29 10:12 pmESE 8.9 13.0----30.18- 59.5 63.0----
2023-05-29 10:06 pmESE 8.9 14.0----30.18- 59.5 63.0----
2023-05-29 10:00 pmESE 8.0 15.9----30.18+0.08 59.7 63.0----
2023-05-29 09:54 pm E 9.9 15.0----30.18- 59.9 62.8----
2023-05-29 09:48 pm E 9.9 13.0----30.17- 59.9 63.5----
2023-05-29 09:42 pmESE 8.9 15.0----30.17- 60.1 63.1----
2023-05-29 09:36 pm E 8.9 14.0----30.16- 60.1 63.1----
2023-05-29 09:30 pmESE 8.9 13.0----30.16- 60.3 63.3----
2023-05-29 09:24 pmESE 8.0 12.0----30.16- 60.3 63.1----
2023-05-29 09:18 pm E 8.9 15.0----30.15- 60.3 63.1----
2023-05-29 09:12 pm E 11.1 15.0----30.15- 60.4 63.3----
2023-05-29 09:06 pmESE 8.9 12.0----30.15- 60.4 63.5----
2023-05-29 09:00 pmESE 9.9 15.0----30.14+0.06 60.4 63.3----
2023-05-29 08:54 pmESE 8.0 14.0----30.14- 60.8 63.1----